Hourly Weather Baronskaya

Today, 27 September, Sunday

Time Temperature Precipitation Wind Pressure Humidity
00:00 +8°C° 0 mm 1 mps 754 mmHg 94%
01:00 +8°C° 0 mm 1 mps 754 mmHg 95%
02:00 +8°C° 0 mm 1 mps 754 mmHg 95%
03:00 +7°C° 0 mm 1 mps 754 mmHg 95%
04:00 +7°C° 0 mm 1 mps 754 mmHg 95%
05:00 +7°C° 0 mm 1 mps 754 mmHg 95%
06:00 +7°C° 0 mm 1 mps 754 mmHg 96%
07:00 +7°C° 0 mm 1 mps 754 mmHg 96%
08:00 +9°C° 0 mm 1 mps 754 mmHg 91%
09:00 +10°C° 0 mm 2 mps 754 mmHg 85%
10:00 +13°C° 0 mm 2 mps 754 mmHg 78%
11:00 +14°C° 0 mm 2 mps 754 mmHg 73%
12:00 +15°C° 0 mm 2 mps 754 mmHg 68%
13:00 +16°C° 0 mm 3 mps 754 mmHg 64%
14:00 +16°C° 0 mm 3 mps 754 mmHg 65%
15:00 +15°C° 0 mm 2 mps 754 mmHg 67%
16:00 +15°C° 0 mm 2 mps 754 mmHg 68%
17:00 +13°C° 0 mm 2 mps 754 mmHg 76%
18:00 +12°C° 0 mm 2 mps 753 mmHg 84%
19:00 +9°C° 0 mm 2 mps 753 mmHg 93%
20:00 +8°C° 0 mm 2 mps 754 mmHg 93%
21:00 +9°C° 0 mm 1 mps 754 mmHg 94%
22:00 +8°C° 0 mm 1 mps 754 mmHg 95%
23:00 +8°C° 0 mm 1 mps 754 mmHg 95%

Tomorrow, 28 September, Monday

Time Temperature Precipitation Wind Pressure Humidity
00:00 +8°C° 0 mm 1 mps 753 mmHg 95%
01:00 +7°C° 0 mm 1 mps 753 mmHg 96%
02:00 +7°C° 0 mm 1 mps 754 mmHg 96%
03:00 +7°C° 0 mm 1 mps 754 mmHg 96%
04:00 +7°C° 0 mm 1 mps 754 mmHg 96%
05:00 +7°C° 0 mm 1 mps 754 mmHg 96%
06:00 +7°C° 0 mm 1 mps 754 mmHg 97%
07:00 +7°C° 0 mm 1 mps 754 mmHg 97%
08:00 +9°C° 0 mm 1 mps 754 mmHg 91%
09:00 +10°C° 0 mm 2 mps 754 mmHg 84%
10:00 +13°C° 0 mm 2 mps 754 mmHg 77%
11:00 +14°C° 0 mm 2 mps 754 mmHg 73%
12:00 +15°C° 0 mm 2 mps 754 mmHg 69%
13:00 +16°C° 0 mm 2 mps 754 mmHg 66%
14:00 +16°C° 0 mm 2 mps 754 mmHg 68%
15:00 +16°C° 0 mm 2 mps 754 mmHg 70%
16:00 +15°C° 0 mm 2 mps 754 mmHg 73%
17:00 +14°C° 0 mm 2 mps 754 mmHg 79%
18:00 +12°C° 0 mm 1 mps 754 mmHg 86%
19:00 +10°C° 0 mm 1 mps 754 mmHg 93%
20:00 +10°C° 0 mm 1 mps 755 mmHg 93%
21:00 +9°C° 0 mm 1 mps 755 mmHg 94%
22:00 +8°C° 0 mm 0 mps 755 mmHg 94%
23:00 +8°C° 0 mm 0 mps 755 mmHg 94%

Day after tomorrow, 29 September, Tuesday

Time Temperature Precipitation Wind Pressure Humidity
00:00 +7°C° 0 mm 0 mps 755 mmHg 94%
01:00 +7°C° 0 mm 0 mps 755 mmHg 95%
02:00 +7°C° 0 mm 0 mps 755 mmHg 95%
03:00 +7°C° 0 mm 0 mps 755 mmHg 95%
04:00 +6°C° 0 mm 0 mps 755 mmHg 96%
05:00 +7°C° 0 mm 0 mps 755 mmHg 96%
06:00 +7°C° 0 mm 0 mps 755 mmHg 96%
07:00 +7°C° 0 mm 0 mps 755 mmHg 96%
08:00 +9°C° 0 mm 0 mps 756 mmHg 89%
09:00 +11°C° 0 mm 0 mps 756 mmHg 82%
10:00 +13°C° 0 mm 0 mps 756 mmHg 76%
11:00 +15°C° 0 mm 1 mps 756 mmHg 71%
12:00 +16°C° 0 mm 1 mps 756 mmHg 66%
13:00 +18°C° 0 mm 1 mps 755 mmHg 62%
14:00 +16°C° 0 mm 1 mps 755 mmHg 65%
15:00 +16°C° 0 mm 1 mps 755 mmHg 67%
16:00 +16°C° 0 mm 1 mps 755 mmHg 70%
17:00 +14°C° 0 mm 1 mps 755 mmHg 77%
18:00 +12°C° 0 mm 1 mps 755 mmHg 84%
19:00 +10°C° 0 mm 1 mps 755 mmHg 91%
20:00 +10°C° 0 mm 1 mps 755 mmHg 92%
21:00 +9°C° 0 mm 1 mps 755 mmHg 93%
22:00 +8°C° 0 mm 0 mps 755 mmHg 93%
23:00 +8°C° 0 mm 0 mps 755 mmHg 94%

30 September, Wednesday

Time Temperature Precipitation Wind Pressure Humidity
00:00 +7°C° 0 mm 0 mps 754 mmHg 94%
01:00 +7°C° 0 mm 0 mps 754 mmHg 94%
02:00 +8°C° 0 mm 1 mps 754 mmHg 95%
03:00 +8°C° 0 mm 1 mps 754 mmHg 95%
04:00 +8°C° 0 mm 1 mps 754 mmHg 95%
05:00 +8°C° 0 mm 1 mps 754 mmHg 95%
06:00 +8°C° 0 mm 1 mps 754 mmHg 96%
07:00 +8°C° 0 mm 1 mps 754 mmHg 96%
08:00 +9°C° 0 mm 1 mps 754 mmHg 88%
09:00 +11°C° 0 mm 1 mps 754 mmHg 81%
10:00 +13°C° 0 mm 2 mps 754 mmHg 73%
11:00 +14°C° 0 mm 2 mps 754 mmHg 69%
12:00 +15°C° 0 mm 2 mps 754 mmHg 64%
13:00 +17°C° 0 mm 2 mps 754 mmHg 59%
14:00 +16°C° 0 mm 2 mps 754 mmHg 62%
15:00 +16°C° 0 mm 2 mps 753 mmHg 65%
16:00 +16°C° 0 mm 1 mps 753 mmHg 68%
17:00 +14°C° 0 mm 1 mps 753 mmHg 76%
18:00 +12°C° 0 mm 1 mps 753 mmHg 83%
19:00 +10°C° 0 mm 1 mps 753 mmHg 91%
20:00 +9°C° 0 mm 1 mps 753 mmHg 91%
21:00 +9°C° 0 mm 1 mps 753 mmHg 91%
22:00 +7°C° 0 mm 0 mps 754 mmHg 92%
23:00 +7°C° 0 mm 0 mps 754 mmHg 92%

1 October, Thursday

Time Temperature Precipitation Wind Pressure Humidity
00:00 +7°C° 0 mm 0 mps 754 mmHg 92%
01:00 +6°C° 0 mm 0 mps 754 mmHg 92%
02:00 +6°C° 0 mm 0 mps 754 mmHg 92%
03:00 +6°C° 0 mm 0 mps 754 mmHg 92%
04:00 +6°C° 0 mm 0 mps 753 mmHg 92%
05:00 +6°C° 0 mm 0 mps 754 mmHg 92%
06:00 +6°C° 0 mm 0 mps 754 mmHg 92%
07:00 +6°C° 0 mm 0 mps 754 mmHg 92%
08:00 +8°C° 0 mm 0 mps 754 mmHg 84%
09:00 +10°C° 0 mm 0 mps 754 mmHg 77%
10:00 +13°C° 0 mm 0 mps 754 mmHg 69%
11:00 +14°C° 0 mm 0 mps 754 mmHg 64%
12:00 +15°C° 0 mm 0 mps 754 mmHg 59%
13:00 +16°C° 0 mm 0 mps 753 mmHg 54%
14:00 +16°C° 0 mm 0 mps 753 mmHg 57%
15:00 +15°C° 0 mm 0 mps 753 mmHg 59%
16:00 +15°C° 0 mm 1 mps 753 mmHg 62%
17:00 +14°C° 0 mm 1 mps 753 mmHg 68%
18:00 +12°C° 0 mm 1 mps 753 mmHg 73%
19:00 +9°C° 0 mm 0 mps 753 mmHg 79%
20:00 +8°C° 0 mm 0 mps 753 mmHg 81%
21:00 +8°C° 0 mm 0 mps 753 mmHg 83%
22:00 +7°C° 0 mm 0 mps 753 mmHg 85%
23:00 +7°C° 0 mm 0 mps 753 mmHg 86%

2 October, Friday

Time Temperature Precipitation Wind Pressure Humidity
00:00 +7°C° 0 mm 0 mps 753 mmHg 87%
01:00 +7°C° 0 mm 0 mps 753 mmHg 89%
02:00 +6°C° 0 mm 0 mps 753 mmHg 89%
03:00 +6°C° 0 mm 0 mps 753 mmHg 90%
04:00 +6°C° 0 mm 0 mps 753 mmHg 91%
05:00 +6°C° 0 mm 0 mps 753 mmHg 90%
06:00 +6°C° 0 mm 0 mps 752 mmHg 90%
07:00 +6°C° 0 mm 0 mps 752 mmHg 90%
08:00 +9°C° 0 mm 1 mps 752 mmHg 83%
09:00 +11°C° 0 mm 1 mps 752 mmHg 75%
10:00 +13°C° 0 mm 1 mps 752 mmHg 67%
11:00 +14°C° 0 mm 1 mps 752 mmHg 65%
12:00 +15°C° 0 mm 2 mps 752 mmHg 62%
13:00 +16°C° 0 mm 2 mps 752 mmHg 60%
14:00 +15°C° 0 mm 2 mps 751 mmHg 63%
15:00 +15°C° 0 mm 2 mps 751 mmHg 67%
16:00 +15°C° 0 mm 2 mps 751 mmHg 70%
17:00 +13°C° 0 mm 2 mps 751 mmHg 78%
18:00 +10°C° 0 mm 2 mps 751 mmHg 85%
19:00 +10°C° 0 mm 1 mps 751 mmHg 93%
20:00 +9°C° 0 mm 1 mps 751 mmHg 94%
21:00 +9°C° 0 mm 1 mps 751 mmHg 94%
22:00 +8°C° 0 mm 1 mps 751 mmHg 95%
23:00 +8°C° 0 mm 1 mps 751 mmHg 95%
Show more